Time,TemperatureF,DewpointF,PressureIn,WindDirection,WindDirectionDegrees,WindSpeedMPH,WindSpeedGustMPH,Humidity,HourlyPrecipIn,Conditions,Clouds,dailyrainin,SoftwareType,DateUTC
2013-01-07 00:03:00,33.0,29.0,30.26,West,264,5.0,13.0,86,0.00,,,1.40,,2013-01-07 05:03:00,
2013-01-07 00:12:00,33.0,29.0,30.26,West,264,5.0,13.0,86,0.00,,,1.40,,2013-01-07 05:12:00,
2013-01-07 00:22:00,33.0,29.0,30.26,West,278,2.0,9.0,85,0.00,,,1.40,,2013-01-07 05:22:00,
2013-01-07 00:33:00,33.0,29.0,30.27,WSW,253,1.0,6.0,85,0.00,,,1.40,,2013-01-07 05:33:00,
2013-01-07 00:42:00,33.0,29.0,30.27,WSW,253,1.0,6.0,85,0.00,,,1.40,,2013-01-07 05:42:00,
2013-01-07 00:53:00,33.0,29.0,30.27,WSW,244,0.0,0.0,85,0.00,,,1.40,,2013-01-07 05:53:00,
2013-01-07 01:02:00,33.0,29.0,30.28,WSW,248,0.0,0.0,86,0.00,,,1.50,,2013-01-07 06:02:00,
2013-01-07 01:12:00,32.0,28.0,30.29,West,271,0.0,0.0,86,0.10,,,1.50,,2013-01-07 06:12:00,
2013-01-07 01:22:00,32.0,28.0,30.29,West,271,0.0,0.0,86,0.10,,,1.50,,2013-01-07 06:22:00,
2013-01-07 01:32:00,32.0,28.0,30.30,West,265,4.0,11.0,86,0.10,,,1.50,,2013-01-07 06:32:00,
2013-01-07 01:42:00,32.0,28.0,30.30,West,265,4.0,11.0,86,0.10,,,1.50,,2013-01-07 06:42:00,
2013-01-07 01:52:00,32.0,28.0,30.31,West,267,0.0,0.0,86,0.10,,,1.50,,2013-01-07 06:52:00,
2013-01-07 02:02:00,32.0,29.0,30.32,West,273,0.0,0.0,87,0.00,,,1.50,,2013-01-07 07:02:00,
2013-01-07 02:12:00,32.0,29.0,30.32,West,273,0.0,0.0,87,0.00,,,1.50,,2013-01-07 07:12:00,
2013-01-07 02:22:00,32.0,29.0,30.32,WSW,247,2.0,4.0,87,0.00,,,1.50,,2013-01-07 07:22:00,
2013-01-07 02:33:00,31.0,28.0,30.32,WSW,248,0.0,0.0,87,0.00,,,1.50,,2013-01-07 07:33:00,
2013-01-07 02:42:00,31.0,28.0,30.32,WSW,248,0.0,0.0,87,0.00,,,1.50,,2013-01-07 07:42:00,
2013-01-07 02:53:00,31.0,28.0,30.33,WSW,247,0.0,0.0,87,0.00,,,1.50,,2013-01-07 07:53:00,
2013-01-07 03:03:00,31.0,28.0,30.33,West,268,0.0,0.0,88,0.00,,,1.50,,2013-01-07 08:03:00,
2013-01-07 03:12:00,31.0,28.0,30.33,West,268,0.0,0.0,88,0.00,,,1.50,,2013-01-07 08:12:00,
2013-01-07 03:22:00,31.0,28.0,30.35,WSW,248,0.0,0.0,87,0.00,,,1.50,,2013-01-07 08:22:00,
2013-01-07 03:32:00,31.0,28.0,30.35,WSW,248,0.0,0.0,87,0.00,,,1.50,,2013-01-07 08:32:00,
2013-01-07 03:42:00,31.0,28.0,30.35,WSW,248,0.0,0.0,87,0.00,,,1.50,,2013-01-07 08:42:00,
2013-01-07 03:53:00,31.0,28.0,30.36,WSW,239,0.0,0.0,87,0.00,,,1.50,,2013-01-07 08:53:00,
2013-01-07 04:02:00,31.0,28.0,30.36,WSW,257,0.0,0.0,87,0.00,,,1.50,,2013-01-07 09:02:00,
2013-01-07 04:12:00,31.0,28.0,30.36,WSW,257,0.0,0.0,87,0.00,,,1.50,,2013-01-07 09:12:00,
2013-01-07 04:22:00,31.0,28.0,30.36,WSW,248,0.0,0.0,87,0.00,,,1.50,,2013-01-07 09:22:00,
2013-01-07 04:32:00,31.0,28.0,30.36,WSW,247,0.0,0.0,87,0.00,,,1.50,,2013-01-07 09:32:00,
2013-01-07 04:42:00,31.0,28.0,30.36,WSW,247,0.0,0.0,87,0.00,,,1.50,,2013-01-07 09:42:00,
2013-01-07 04:52:00,31.0,28.0,30.37,WSW,246,0.0,0.0,87,0.00,,,1.50,,2013-01-07 09:52:00,
2013-01-07 05:02:00,30.0,27.0,30.37,West,263,0.0,0.0,87,0.00,,,1.50,,2013-01-07 10:02:00,
2013-01-07 05:12:00,30.0,27.0,30.37,West,265,0.0,0.0,88,0.00,,,1.50,,2013-01-07 10:12:00,
2013-01-07 05:22:00,30.0,27.0,30.37,West,265,0.0,0.0,88,0.00,,,1.50,,2013-01-07 10:22:00,
2013-01-07 05:32:00,30.0,27.0,30.38,SSE,162,0.0,0.0,88,0.00,,,1.50,,2013-01-07 10:32:00,
2013-01-07 05:42:00,30.0,27.0,30.38,SSE,162,0.0,0.0,88,0.00,,,1.50,,2013-01-07 10:42:00,
2013-01-07 05:52:00,30.0,27.0,30.38,SSE,161,0.0,0.0,88,0.00,,,1.50,,2013-01-07 10:52:00,
2013-01-07 06:02:00,30.0,27.0,30.38,SSE,162,0.0,0.0,88,0.00,,,1.50,,2013-01-07 11:02:00,
2013-01-07 06:12:00,30.0,27.0,30.38,SSE,162,0.0,0.0,88,0.00,,,1.50,,2013-01-07 11:12:00,
2013-01-07 06:23:00,30.0,27.0,30.39,SSE,162,0.0,0.0,88,0.00,,,1.50,,2013-01-07 11:23:00,
2013-01-07 06:33:00,30.0,27.0,30.40,SSE,163,0.0,0.0,88,0.00,,,1.50,,2013-01-07 11:33:00,
2013-01-07 06:43:00,30.0,27.0,30.40,SSE,163,0.0,0.0,88,0.00,,,1.50,,2013-01-07 11:43:00,
2013-01-07 06:53:00,30.0,27.0,30.40,SSE,163,0.0,0.0,88,0.00,,,1.50,,2013-01-07 11:53:00,
2013-01-07 07:03:00,30.0,27.0,30.41,WSW,251,0.0,0.0,88,0.00,,,1.50,,2013-01-07 12:03:00,
2013-01-07 07:12:00,30.0,27.0,30.41,ESE,111,1.0,2.0,88,0.00,,,1.50,,2013-01-07 12:12:00,
2013-01-07 07:22:00,30.0,27.0,30.41,ESE,111,1.0,2.0,88,0.00,,,1.50,,2013-01-07 12:22:00,
2013-01-07 07:33:00,30.0,27.0,30.41,ESE,113,0.0,0.0,88,0.00,,,1.50,,2013-01-07 12:33:00,
2013-01-07 07:43:00,30.0,27.0,30.41,ESE,113,0.0,0.0,88,0.00,,,1.50,,2013-01-07 12:43:00,
2013-01-07 07:53:00,30.0,27.0,30.41,ESE,113,0.0,0.0,88,0.00,,,1.50,,2013-01-07 12:53:00,
2013-01-07 08:02:00,30.0,27.0,30.41,ESE,113,0.0,0.0,88,0.00,,,1.50,,2013-01-07 13:02:00,
2013-01-07 08:12:00,30.0,27.0,30.41,ESE,113,0.0,0.0,88,0.00,,,1.50,,2013-01-07 13:12:00,
2013-01-07 22:53:00,24.0,21.0,30.37,South,175,0.0,0.0,89,0.00,,,0.40,,2013-01-08 03:53:00,
2013-01-07 23:02:00,23.0,20.0,30.36,South,175,0.0,0.0,89,0.00,,,0.40,,2013-01-08 04:02:00,
2013-01-07 23:12:00,23.0,20.0,30.36,South,175,0.0,0.0,89,0.00,,,0.40,,2013-01-08 04:12:00,
2013-01-07 23:22:00,23.0,20.0,30.36,South,175,0.0,0.0,89,0.00,,,0.40,,2013-01-08 04:22:00,
2013-01-07 23:32:00,23.0,20.0,30.36,South,175,0.0,0.0,89,0.00,,,0.40,,2013-01-08 04:32:00,
2013-01-07 23:42:00,23.0,20.0,30.36,South,175,0.0,0.0,89,0.00,,,0.40,,2013-01-08 04:42:00,
2013-01-07 23:52:00,23.0,20.0,30.35,South,175,0.0,0.0,89,0.00,,,0.40,,2013-01-08 04:52:00,